| time (UTC) | temp C | wind direction | speed KPH | gust KPH | rain 1hr cm | rain 24hr cm | rain mn cm | humidity % | barometer mb |
| 20260504090128 | 9 | 39 | 4.8 | 8.0 | 0.00 | 0.00 | 0.00 | 56 | 1018.1 |
| 20260504081558 | 8 | 62 | 3.2 | 3.2 | 0.00 | 0.00 | 0.00 | 58 | 1018.6 |
| 20260504081054 | 8 | 91 | 0.0 | 0.0 | 0.00 | 0.00 | 0.00 | 59 | 1018.6 |
| 20260504080551 | 8 | 75 | 1.6 | 3.2 | 0.00 | 0.00 | 0.00 | 60 | 1018.7 |
| 20260504050403 | 6 | 87 | 0.0 | 0.0 | 0.00 | 0.00 | 0.00 | 62 | 1019.1 |
| 20260504045900 | 5 | 85 | 1.6 | 3.2 | 0.00 | 0.00 | 0.00 | 69 | 1019.1 |
| 20260504045355 | 5 | 85 | 0.0 | 0.0 | 0.00 | 0.00 | 0.00 | 72 | 1019.2 |
| 20260504044852 | 5 | 87 | 0.0 | 3.2 | 0.00 | 0.00 | 0.00 | 72 | 1018.9 |
| 20260504044350 | 4 | 84 | 0.0 | 0.0 | 0.00 | 0.00 | 0.00 | 75 | 1018.8 |
| 20260504043847 | 4 | 88 | 0.0 | 0.0 | 0.00 | 0.00 | 0.00 | 76 | 1018.8 |
| 20260504043344 | 5 | 88 | 0.0 | 0.0 | 0.00 | 0.00 | 0.00 | 74 | 1018.9 |
| 20260504042841 | 5 | 69 | 3.2 | 3.2 | 0.00 | 0.00 | 0.00 | 75 | 1019.0 |
| 20260504042337 | 6 | 89 | 0.0 | 0.0 | 0.00 | 0.00 | 0.00 | 73 | 1018.7 |
| 20260504041834 | 5 | 86 | 0.0 | 0.0 | 0.00 | 0.00 | 0.00 | 65 | 1018.9 |
| 20260504041331 | 3 | 98 | 3.2 | 3.2 | 0.00 | 0.00 | 0.00 | 82 | 1018.8 |
| 20260504040827 | 3 | 81 | 1.6 | 3.2 | 0.00 | 0.00 | 0.00 | 80 | 1018.8 |
| 20260504040325 | 3 | 86 | 0.0 | 0.0 | 0.00 | 0.00 | 0.00 | 80 | 1018.7 |
| 20260504035820 | 4 | 90 | 0.0 | 0.0 | 0.00 | 0.00 | 0.00 | 79 | 1018.5 |
| 20260504035318 | 4 | 90 | 0.0 | 0.0 | 0.00 | 0.00 | 0.00 | 78 | 1018.6 |
| 20260504034815 | 4 | 86 | 0.0 | 0.0 | 0.00 | 0.00 | 0.00 | 79 | 1018.5 |
| 20260504034312 | 4 | 86 | 0.0 | 0.0 | 0.00 | 0.00 | 0.00 | 78 | 1018.6 |
| 20260504033809 | 5 | 86 | 0.0 | 0.0 | 0.00 | 0.00 | 0.00 | 77 | 1018.5 |
| 20260504033307 | 5 | 88 | 0.0 | 0.0 | 0.00 | 0.00 | 0.00 | 76 | 1018.6 |
| 20260504032803 | 5 | 88 | 1.6 | 3.2 | 0.00 | 0.00 | 0.00 | 76 | 1018.3 |
| 20260504032300 | 5 | 88 | 0.0 | 0.0 | 0.00 | 0.00 | 0.00 | 77 | 1018.3 |
| 20260504031757 | 5 | 73 | 3.2 | 3.2 | 0.00 | 0.00 | 0.00 | 76 | 1018.2 |
| 20260504031254 | 5 | 94 | 0.0 | 3.2 | 0.00 | 0.00 | 0.00 | 76 | 1018.1 |
| 20260504030750 | 5 | 97 | 0.0 | 3.2 | 0.00 | 0.00 | 0.00 | 75 | 1018.3 |
| 20260504030248 | 5 | 88 | 0.0 | 0.0 | 0.00 | 0.00 | 0.00 | 75 | 1018.5 |
| 20260504025744 | 6 | 90 | 0.0 | 0.0 | 0.00 | 0.00 | 0.00 | 72 | 1018.4 |
| 20260504025241 | 5 | 89 | 0.0 | 0.0 | 0.00 | 0.00 | 0.00 | 73 | 1018.3 |
| 20260504024738 | 6 | 92 | 0.0 | 0.0 | 0.00 | 0.00 | 0.00 | 72 | 1018.3 |
| 20260504024234 | 5 | 104 | 3.2 | 4.8 | 0.00 | 0.00 | 0.00 | 73 | 1018.4 |
| 20260504023731 | 5 | 89 | 0.0 | 0.0 | 0.00 | 0.00 | 0.00 | 74 | 1018.1 |
| 20260504023227 | 5 | 89 | 0.0 | 0.0 | 0.00 | 0.00 | 0.00 | 73 | 1018.2 |
| 20260504022723 | 6 | 89 | 0.0 | 0.0 | 0.00 | 0.00 | 0.00 | 72 | 1018.2 |
| 20260504022220 | 6 | 89 | 0.0 | 0.0 | 0.00 | 0.00 | 0.00 | 71 | 1018.3 |
| 20260504021718 | 6 | 90 | 0.0 | 0.0 | 0.00 | 0.00 | 0.00 | 70 | 1018.1 |
| 20260504021215 | 6 | 90 | 0.0 | 0.0 | 0.00 | 0.00 | 0.00 | 70 | 1018.1 |
| 20260504020711 | 6 | 90 | 0.0 | 0.0 | 0.00 | 0.00 | 0.00 | 68 | 1018.3 |
| 20260504020207 | 6 | 91 | 0.0 | 0.0 | 0.00 | 0.00 | 0.00 | 67 | 1018.2 |
| 20260504015704 | 6 | 92 | 0.0 | 0.0 | 0.00 | 0.00 | 0.00 | 67 | 1018.0 |
| 20260504015200 | 6 | 90 | 0.0 | 0.0 | 0.00 | 0.00 | 0.00 | 68 | 1018.0 |
| 20260504014655 | 7 | 90 | 0.0 | 0.0 | 0.00 | 0.00 | 0.00 | 65 | 1018.1 |
| 20260504014153 | 7 | 90 | 0.0 | 0.0 | 0.00 | 0.00 | 0.00 | 63 | 1018.0 |
| 20260504013651 | 7 | 90 | 0.0 | 0.0 | 0.00 | 0.00 | 0.00 | 62 | 1017.9 |
| 20260504013147 | 7 | 90 | 0.0 | 0.0 | 0.00 | 0.00 | 0.00 | 64 | 1018.0 |
| 20260504012644 | 8 | 90 | 0.0 | 0.0 | 0.00 | 0.00 | 0.00 | 60 | 1018.0 |
| 20260504012142 | 8 | 90 | 0.0 | 0.0 | 0.00 | 0.00 | 0.00 | 61 | 1017.9 |
| 20260504011639 | 7 | 83 | 0.0 | 0.0 | 0.00 | 0.00 | 0.00 | 63 | 1017.8 |
| 20260504011136 | 8 | 84 | 0.0 | 3.2 | 0.00 | 0.00 | 0.00 | 61 | 1017.7 |
| 20260504010631 | 8 | 87 | 0.0 | 0.0 | 0.00 | 0.00 | 0.00 | 58 | 1017.8 |
| 20260504010127 | 8 | 91 | 3.2 | 3.2 | 0.00 | 0.00 | 0.00 | 57 | 1017.5 |
| 20260504005625 | 8 | 90 | 1.6 | 3.2 | 0.00 | 0.00 | 0.00 | 61 | 1017.7 |
| 20260504005122 | 9 | 89 | 0.0 | 0.0 | 0.00 | 0.00 | 0.00 | 59 | 1017.5 |
| 20260504004620 | 11 | 77 | 3.2 | 3.2 | 0.00 | 0.00 | 0.00 | 53 | 1017.5 |
| 20260504004117 | 11 | 60 | 3.2 | 4.8 | 0.00 | 0.00 | 0.00 | 43 | 1017.6 |
| 20260504003613 | 12 | 78 | 1.6 | 3.2 | 0.00 | 0.00 | 0.00 | 43 | 1017.5 |
| 20260504003109 | 11 | 84 | 1.6 | 3.2 | 0.00 | 0.00 | 0.00 | 43 | 1017.4 |
| 20260504002606 | 10 | 79 | 3.2 | 3.2 | 0.00 | 0.00 | 0.00 | 47 | 1017.5 |
| 20260504002104 | 11 | 84 | 0.0 | 0.0 | 0.00 | 0.00 | 0.00 | 50 | 1017.5 |
| 20260504001601 | 11 | 86 | 0.0 | 0.0 | 0.00 | 0.00 | 0.00 | 46 | 1017.4 |
| 20260504001057 | 11 | 93 | 0.0 | 0.0 | 0.00 | 0.00 | 0.00 | 47 | 1017.3 |
| 20260504000554 | 12 | 93 | 1.6 | 3.2 | 0.00 | 0.00 | 0.00 | 46 | 1017.2 |
| 20260504000052 | 12 | 89 | 1.6 | 3.2 | 0.00 | 0.00 | 0.00 | 45 | 1017.3 |
| 20260503235550 | 12 | 88 | 0.0 | 0.0 | 0.00 | 0.00 | 0.00 | 44 | 1017.4 |
| 20260503235047 | 12 | 85 | 0.0 | 0.0 | 0.00 | 0.00 | 0.00 | 42 | 1017.1 |
| 20260503234544 | 13 | 85 | 0.0 | 3.2 | 0.00 | 0.00 | 0.00 | 41 | 1017.2 |
| 20260503234043 | 13 | 115 | 3.2 | 4.8 | 0.00 | 0.00 | 0.00 | 40 | 1016.9 |
| 20260503233538 | 13 | 72 | 3.2 | 4.8 | 0.00 | 0.00 | 0.00 | 38 | 1017.0 |
| 20260503233034 | 13 | 65 | 3.2 | 4.8 | 0.00 | 0.00 | 0.00 | 37 | 1016.9 |
| 20260503232532 | 14 | 87 | 0.0 | 3.2 | 0.00 | 0.00 | 0.00 | 38 | 1017.0 |
| 20260503232029 | 14 | 78 | 4.8 | 9.7 | 0.00 | 0.00 | 0.00 | 37 | 1016.8 |
| 20260503231527 | 14 | 58 | 8.0 | 8.0 | 0.00 | 0.00 | 0.00 | 36 | 1016.8 |
| 20260503231023 | 15 | 95 | 8.0 | 9.7 | 0.00 | 0.00 | 0.00 | 36 | 1016.5 |
| 20260503230520 | 15 | 66 | 6.4 | 9.7 | 0.00 | 0.00 | 0.00 | 35 | 1016.6 |
| 20260503230018 | 15 | 108 | 4.8 | 4.8 | 0.00 | 0.00 | 0.00 | 35 | 1016.7 |
| 20260503225514 | 15 | 106 | 22.5 | 25.7 | 0.00 | 0.00 | 0.00 | 34 | 1016.6 |
| 20260503225009 | 15 | 86 | 0.0 | 0.0 | 0.00 | 0.00 | 0.00 | 35 | 1016.7 |
| 20260503224507 | 15 | 75 | 14.5 | 17.7 | 0.00 | 0.00 | 0.00 | 35 | 1016.7 |
| 20260503224005 | 15 | 116 | 8.0 | 20.9 | 0.00 | 0.00 | 0.00 | 35 | 1016.8 |
| 20260503223503 | 15 | 88 | 0.0 | 3.2 | 0.00 | 0.00 | 0.00 | 36 | 1016.6 |
| 20260503222958 | 15 | 87 | 4.8 | 8.0 | 0.00 | 0.00 | 0.00 | 34 | 1016.9 |
| 20260503222457 | 15 | 92 | 6.4 | 8.0 | 0.00 | 0.00 | 0.00 | 34 | 1016.9 |
| 20260503221954 | 15 | 86 | 6.4 | 12.9 | 0.00 | 0.00 | 0.00 | 36 | 1016.8 |
| 20260503221452 | 15 | 75 | 3.2 | 3.2 | 0.00 | 0.00 | 0.00 | 36 | 1016.8 |
| 20260503220949 | 15 | 107 | 27.4 | 30.6 | 0.00 | 0.00 | 0.00 | 34 | 1016.9 |
| 20260503220445 | 15 | 88 | 6.4 | 9.7 | 0.00 | 0.00 | 0.00 | 35 | 1016.9 |
| 20260503215942 | 15 | 108 | 8.0 | 9.7 | 0.00 | 0.00 | 0.00 | 34 | 1016.9 |
| 20260503215439 | 15 | 84 | 12.9 | 20.9 | 0.00 | 0.00 | 0.00 | 34 | 1016.7 |
| 20260503214937 | 15 | 50 | 12.9 | 16.1 | 0.00 | 0.00 | 0.00 | 34 | 1017.0 |
| 20260503214434 | 15 | 85 | 6.4 | 8.0 | 0.00 | 0.00 | 0.00 | 34 | 1016.9 |
| 20260503213931 | 15 | 94 | 1.6 | 3.2 | 0.00 | 0.00 | 0.00 | 35 | 1016.8 |
| 20260503213430 | 15 | 65 | 12.9 | 17.7 | 0.00 | 0.00 | 0.00 | 34 | 1016.9 |
| 20260503212925 | 15 | 97 | 6.4 | 9.7 | 0.00 | 0.00 | 0.00 | 34 | 1017.0 |
| 20260503212423 | 15 | 103 | 9.7 | 12.9 | 0.00 | 0.00 | 0.00 | 33 | 1016.9 |
| 20260503211920 | 15 | 94 | 9.7 | 16.1 | 0.00 | 0.00 | 0.00 | 33 | 1016.8 |
| 20260503211417 | 15 | 92 | 11.3 | 12.9 | 0.00 | 0.00 | 0.00 | 34 | 1016.9 |
| 20260503210912 | 15 | 75 | 4.8 | 8.0 | 0.00 | 0.00 | 0.00 | 34 | 1016.9 |
| 20260503210410 | 15 | 59 | 29.0 | 33.8 | 0.00 | 0.00 | 0.00 | 34 | 1017.0 |
| 20260503205904 | 15 | 74 | 14.5 | 17.7 | 0.00 | 0.00 | 0.00 | 33 | 1017.0 |
| 20260503205402 | 15 | 111 | 17.7 | 22.5 | 0.00 | 0.00 | 0.00 | 34 | 1016.8 |
| 20260503204858 | 15 | 89 | 12.9 | 17.7 | 0.00 | 0.00 | 0.00 | 34 | 1016.9 |
| 20260503204355 | 15 | 102 | 11.3 | 12.9 | 0.00 | 0.00 | 0.00 | 34 | 1016.9 |
| 20260503203852 | 15 | 97 | 32.2 | 38.6 | 0.00 | 0.00 | 0.00 | 33 | 1017.0 |
| 20260503203350 | 15 | 92 | 3.2 | 4.8 | 0.00 | 0.00 | 0.00 | 35 | 1016.9 |
| 20260503202846 | 15 | 75 | 19.3 | 22.5 | 0.00 | 0.00 | 0.00 | 34 | 1017.1 |
| 20260503202345 | 15 | 103 | 17.7 | 22.5 | 0.00 | 0.00 | 0.00 | 33 | 1017.1 |
| 20260503201843 | 15 | 106 | 8.0 | 9.7 | 0.00 | 0.00 | 0.00 | 36 | 1017.2 |
| 20260503201339 | 15 | 87 | 4.8 | 8.0 | 0.00 | 0.00 | 0.00 | 35 | 1017.2 |
| 20260503200837 | 15 | 104 | 17.7 | 30.6 | 0.00 | 0.00 | 0.00 | 34 | 1017.2 |
| 20260503200332 | 15 | 79 | 12.9 | 17.7 | 0.00 | 0.00 | 0.00 | 34 | 1017.4 |
| 20260503195830 | 15 | 79 | 14.5 | 20.9 | 0.00 | 0.00 | 0.00 | 33 | 1017.4 |
| 20260503195326 | 15 | 75 | 12.9 | 16.1 | 0.00 | 0.00 | 0.00 | 34 | 1017.5 |
| 20260503194824 | 15 | 77 | 9.7 | 16.1 | 0.00 | 0.00 | 0.00 | 33 | 1017.4 |
| 20260503194319 | 14 | 39 | 9.7 | 16.1 | 0.00 | 0.00 | 0.00 | 35 | 1017.7 |
| 20260503193816 | 14 | 19 | 6.4 | 16.1 | 0.00 | 0.00 | 0.00 | 39 | 1017.8 |
| 20260503193312 | 13 | 82 | 8.0 | 9.7 | 0.00 | 0.00 | 0.00 | 37 | 1017.7 |
| 20260503192808 | 13 | 80 | 11.3 | 12.9 | 0.00 | 0.00 | 0.00 | 35 | 1017.8 |
| 20260503192305 | 14 | 98 | 14.5 | 17.7 | 0.00 | 0.00 | 0.00 | 37 | 1017.8 |
| 20260503191800 | 13 | 88 | 19.3 | 22.5 | 0.00 | 0.00 | 0.00 | 37 | 1017.9 |
| 20260503191257 | 13 | 132 | 6.4 | 8.0 | 0.00 | 0.00 | 0.00 | 36 | 1018.1 |
| 20260503190754 | 13 | 33 | 16.1 | 20.9 | 0.00 | 0.00 | 0.00 | 38 | 1018.0 |
| 20260503190251 | 13 | 83 | 24.1 | 30.6 | 0.00 | 0.00 | 0.00 | 38 | 1018.1 |
| 20260503185748 | 13 | 92 | 9.7 | 9.7 | 0.00 | 0.00 | 0.00 | 39 | 1018.0 |
| 20260503185243 | 13 | 84 | 17.7 | 22.5 | 0.00 | 0.00 | 0.00 | 38 | 1018.2 |
| 20260503184738 | 14 | 124 | 11.3 | 16.1 | 0.00 | 0.00 | 0.00 | 38 | 1018.3 |
| 20260503184235 | 13 | 66 | 25.7 | 41.8 | 0.00 | 0.00 | 0.00 | 37 | 1018.3 |
| 20260503183731 | 13 | 358 | 11.3 | 16.1 | 0.00 | 0.00 | 0.00 | 40 | 1018.3 |
| 20260503183229 | 13 | 59 | 8.0 | 12.9 | 0.00 | 0.00 | 0.00 | 40 | 1018.5 |
| 20260503182726 | 12 | 88 | 4.8 | 8.0 | 0.00 | 0.00 | 0.00 | 43 | 1018.5 |
| 20260503182225 | 12 | 119 | 6.4 | 9.7 | 0.00 | 0.00 | 0.00 | 41 | 1018.6 |
| 20260503181721 | 12 | 97 | 17.7 | 30.6 | 0.00 | 0.00 | 0.00 | 41 | 1018.7 |
| 20260503181218 | 12 | 65 | 3.2 | 4.8 | 0.00 | 0.00 | 0.00 | 41 | 1018.7 |
| 20260503180714 | 12 | 44 | 4.8 | 9.7 | 0.00 | 0.00 | 0.00 | 42 | 1018.8 |
| 20260503180213 | 12 | 83 | 4.8 | 8.0 | 0.00 | 0.00 | 0.00 | 41 | 1018.6 |
| 20260503175710 | 12 | 90 | 22.5 | 25.7 | 0.00 | 0.00 | 0.00 | 40 | 1018.7 |
| 20260503175207 | 13 | 62 | 9.7 | 16.1 | 0.00 | 0.00 | 0.00 | 41 | 1018.6 |
| 20260503174703 | 12 | 63 | 6.4 | 8.0 | 0.00 | 0.00 | 0.00 | 41 | 1018.7 |
| 20260503174201 | 11 | 65 | 17.7 | 22.5 | 0.00 | 0.00 | 0.00 | 40 | 1018.9 |
| 20260503173656 | 12 | 106 | 14.5 | 17.7 | 0.00 | 0.00 | 0.00 | 41 | 1018.8 |
| 20260503173152 | 12 | 83 | 17.7 | 20.9 | 0.00 | 0.00 | 0.00 | 42 | 1018.8 |
| 20260503172649 | 12 | 101 | 12.9 | 16.1 | 0.00 | 0.00 | 0.00 | 40 | 1018.9 |
| 20260503172147 | 12 | 39 | 17.7 | 20.9 | 0.00 | 0.00 | 0.00 | 41 | 1018.9 |
| 20260503171643 | 12 | 92 | 22.5 | 33.8 | 0.00 | 0.00 | 0.00 | 42 | 1018.9 |
| 20260503171140 | 11 | 113 | 9.7 | 20.9 | 0.00 | 0.00 | 0.00 | 42 | 1019.0 |
| 20260503170637 | 11 | 79 | 24.1 | 29.0 | 0.00 | 0.00 | 0.00 | 41 | 1019.0 |
| 20260503170134 | 12 | 81 | 19.3 | 22.5 | 0.00 | 0.00 | 0.00 | 41 | 1019.1 |
| 20260503150526 | 8 | 282 | 8.0 | 8.0 | 0.00 | 0.00 | 0.00 | 47 | 1020.0 |
| 20260503131419 | 7 | 90 | 16.1 | 20.9 | 0.00 | 0.00 | 0.00 | 54 | 1020.0 |
| 20260503130915 | 6 | 98 | 9.7 | 12.9 | 0.00 | 0.00 | 0.00 | 56 | 1019.9 |
| 20260503130413 | 6 | 77 | 33.8 | 41.8 | 0.00 | 0.00 | 0.00 | 56 | 1020.0 |
| 20260503110817 | 3 | 99 | 9.7 | 9.7 | 0.00 | 0.00 | 0.00 | 70 | 1019.0 |
| 20260503110314 | 3 | 78 | 8.0 | 9.7 | 0.00 | 0.00 | 0.00 | 71 | 1019.0 |
| 20260503100240 | 2 | 89 | 0.0 | 0.0 | 0.00 | 0.00 | 0.00 | 74 | 1018.1 |